Time,TemperatureF,DewpointF,PressureIn,WindDirection,WindDirectionDegrees,WindSpeedMPH,WindSpeedGustMPH,Humidity,HourlyPrecipIn,Conditions,Clouds,dailyrainin,SoftwareType,DateUTC
2013-06-02 00:00:00,75.7,65.9,29.84,SSE,149,2.4,4.3,71,0.00,n/a,n/a,-99.99,Henriksen +1-Wire,2013-06-02 04:00:00,
2013-06-02 00:02:00,75.6,65.8,29.84,SSE,153,2.9,5.6,71,0.00,n/a,n/a,-99.99,Henriksen +1-Wire,2013-06-02 04:02:00,
2013-06-02 00:04:00,75.5,65.8,29.84,SSE,152,3.4,5.8,71,0.00,n/a,n/a,-99.99,Henriksen +1-Wire,2013-06-02 04:04:00,
2013-06-02 00:06:00,75.5,65.9,29.84,SSE,150,3.2,5.8,71,0.00,n/a,n/a,-99.99,Henriksen +1-Wire,2013-06-02 04:06:00,
2013-06-02 00:10:00,75.4,65.8,29.84,SSE,149,3.2,5.8,71,0.00,n/a,n/a,-99.99,Henriksen +1-Wire,2013-06-02 04:10:00,
2013-06-02 00:14:00,75.3,65.8,29.84,SSE,153,2.6,5.7,71,0.00,n/a,n/a,-99.99,Henriksen +1-Wire,2013-06-02 04:14:00,
2013-06-02 00:20:00,75.1,65.9,29.84,SSE,154,3.1,5.6,72,0.00,n/a,n/a,-99.99,Henriksen +1-Wire,2013-06-02 04:20:00,
2013-06-02 00:26:00,75.0,65.9,29.84,SSE,155,3.3,5.4,72,0.00,n/a,n/a,-99.99,Henriksen +1-Wire,2013-06-02 04:26:00,
2013-06-02 00:32:00,74.9,65.8,29.84,SE,139,3.8,5.5,73,0.00,n/a,n/a,-99.99,Henriksen +1-Wire,2013-06-02 04:32:00,
2013-06-02 00:38:00,74.6,65.8,29.84,SSE,156,2.7,5.5,73,0.00,n/a,n/a,-99.99,Henriksen +1-Wire,2013-06-02 04:38:00,
2013-06-02 00:44:00,74.4,65.7,29.83,SSE,154,3.8,5.6,73,0.00,n/a,n/a,-99.99,Henriksen +1-Wire,2013-06-02 04:44:00,
2013-06-02 00:50:00,74.2,65.6,29.84,SSE,153,2.7,5.6,74,0.00,n/a,n/a,-99.99,Henriksen +1-Wire,2013-06-02 04:50:00,
2013-06-02 00:56:00,74.1,65.7,29.84,SE,138,3.0,4.6,74,0.00,n/a,n/a,-99.99,Henriksen +1-Wire,2013-06-02 04:56:00,
2013-06-02 01:02:00,74.1,65.7,29.83,SSE,155,3.1,4.7,74,0.00,n/a,n/a,-99.99,Henriksen +1-Wire,2013-06-02 05:02:00,
2013-06-02 01:08:00,74.0,65.7,29.83,SSE,155,2.6,4.9,75,0.00,n/a,n/a,-99.99,Henriksen +1-Wire,2013-06-02 05:08:00,
2013-06-02 01:14:00,73.8,65.6,29.83,SE,145,3.8,5.5,75,0.00,n/a,n/a,-99.99,Henriksen +1-Wire,2013-06-02 05:14:00,
2013-06-02 01:20:00,73.7,65.6,29.83,SSE,155,1.5,5.5,75,0.00,n/a,n/a,-99.99,Henriksen +1-Wire,2013-06-02 05:20:00,
2013-06-02 01:26:00,73.5,65.6,29.83,SE,137,2.0,4.2,76,0.00,n/a,n/a,-99.99,Henriksen +1-Wire,2013-06-02 05:26:00,
2013-06-02 01:32:00,73.3,65.6,29.83,ESE,121,2.5,4.2,76,0.00,n/a,n/a,-99.99,Henriksen +1-Wire,2013-06-02 05:32:00,
2013-06-02 01:38:00,73.2,65.5,29.83,SE,127,2.5,4.1,76,0.00,n/a,n/a,-99.99,Henriksen +1-Wire,2013-06-02 05:38:00,
2013-06-02 01:44:00,73.0,65.5,29.83,SSE,148,3.5,5.2,76,0.00,n/a,n/a,-99.99,Henriksen +1-Wire,2013-06-02 05:44:00,
2013-06-02 01:50:00,72.9,65.4,29.82,SSE,147,2.5,5.2,77,0.00,n/a,n/a,-99.99,Henriksen +1-Wire,2013-06-02 05:50:00,
2013-06-02 01:56:00,72.7,65.4,29.82,SSE,148,2.6,4.5,77,0.00,n/a,n/a,-99.99,Henriksen +1-Wire,2013-06-02 05:56:00,
2013-06-02 02:02:00,72.6,65.3,29.82,ESE,123,2.6,4.2,77,0.00,n/a,n/a,-99.99,Henriksen +1-Wire,2013-06-02 06:02:00,
2013-06-02 02:08:00,72.4,65.3,29.82,SE,126,2.8,4.2,77,0.00,n/a,n/a,-99.99,Henriksen +1-Wire,2013-06-02 06:08:00,
2013-06-02 02:14:00,72.3,65.1,29.82,SSE,150,2.9,6.4,77,0.00,n/a,n/a,-99.99,Henriksen +1-Wire,2013-06-02 06:14:00,
2013-06-02 02:20:00,72.2,65.2,29.82,SE,132,1.9,6.4,78,0.00,n/a,n/a,-99.99,Henriksen +1-Wire,2013-06-02 06:20:00,
2013-06-02 02:26:00,72.2,65.2,29.81,SE,128,3.2,6.1,78,0.00,n/a,n/a,-99.99,Henriksen +1-Wire,2013-06-02 06:26:00,
2013-06-02 02:32:00,72.1,65.1,29.81,SSE,150,2.8,6.1,78,0.00,n/a,n/a,-99.99,Henriksen +1-Wire,2013-06-02 06:32:00,
2013-06-02 02:38:00,72.1,65.1,29.81,SSE,155,3.2,5.0,78,0.00,n/a,n/a,-99.99,Henriksen +1-Wire,2013-06-02 06:38:00,
2013-06-02 02:44:00,71.9,65.1,29.81,SSE,159,2.4,5.0,78,0.00,n/a,n/a,-99.99,Henriksen +1-Wire,2013-06-02 06:44:00,
2013-06-02 02:50:00,71.8,65.1,29.81,SSE,153,3.3,6.7,79,0.00,n/a,n/a,-99.99,Henriksen +1-Wire,2013-06-02 06:50:00,
2013-06-02 02:56:00,71.8,65.1,29.81,SSE,152,3.4,6.7,79,0.00,n/a,n/a,-99.99,Henriksen +1-Wire,2013-06-02 06:56:00,
2013-06-02 03:02:00,71.6,65.0,29.81,SE,142,2.4,4.8,79,0.00,n/a,n/a,-99.99,Henriksen +1-Wire,2013-06-02 07:02:00,
2013-06-02 03:08:00,71.6,65.0,29.81,SSE,147,2.9,5.6,79,0.00,n/a,n/a,-99.99,Henriksen +1-Wire,2013-06-02 07:08:00,
2013-06-02 03:14:00,71.5,65.0,29.81,SE,136,3.0,6.6,79,0.00,n/a,n/a,-99.99,Henriksen +1-Wire,2013-06-02 07:14:00,
2013-06-02 03:20:00,71.4,64.9,29.80,SE,145,3.0,5.2,79,0.00,n/a,n/a,-99.99,Henriksen +1-Wire,2013-06-02 07:20:00,
2013-06-02 03:26:00,71.4,65.0,29.80,SE,132,3.0,7.5,80,0.00,n/a,n/a,-99.99,Henriksen +1-Wire,2013-06-02 07:26:00,
2013-06-02 03:32:00,71.2,65.0,29.80,SE,133,3.9,7.5,80,0.00,n/a,n/a,-99.99,Henriksen +1-Wire,2013-06-02 07:32:00,
2013-06-02 03:38:00,71.1,65.0,29.80,SSE,151,3.4,6.4,80,0.00,n/a,n/a,-99.99,Henriksen +1-Wire,2013-06-02 07:38:00,
2013-06-02 03:44:00,71.0,64.9,29.80,SE,131,2.7,5.7,80,0.00,n/a,n/a,-99.99,Henriksen +1-Wire,2013-06-02 07:44:00,
2013-06-02 03:50:00,70.9,64.9,29.80,SE,128,3.2,5.8,81,0.00,n/a,n/a,-99.99,Henriksen +1-Wire,2013-06-02 07:50:00,
2013-06-02 03:56:00,70.7,64.9,29.80,SSE,156,3.5,7.4,81,0.00,n/a,n/a,-99.99,Henriksen +1-Wire,2013-06-02 07:56:00,
2013-06-02 04:02:00,70.7,65.0,29.80,SE,137,3.1,7.4,81,0.00,n/a,n/a,-99.99,Henriksen +1-Wire,2013-06-02 08:02:00,
2013-06-02 04:08:00,70.6,64.9,29.80,SSE,157,3.1,6.4,82,0.00,n/a,n/a,-99.99,Henriksen +1-Wire,2013-06-02 08:08:00,
2013-06-02 04:14:00,70.5,64.9,29.80,SSE,154,4.7,7.0,82,0.00,n/a,n/a,-99.99,Henriksen +1-Wire,2013-06-02 08:14:00,
2013-06-02 04:20:00,70.4,64.8,29.80,SSE,151,2.1,7.0,82,0.00,n/a,n/a,-99.99,Henriksen +1-Wire,2013-06-02 08:20:00,
2013-06-02 04:26:00,70.3,64.9,29.80,SSE,156,3.6,6.7,82,0.00,n/a,n/a,-99.99,Henriksen +1-Wire,2013-06-02 08:26:00,
2013-06-02 04:32:00,70.2,64.9,29.80,SE,133,3.8,6.7,82,0.00,n/a,n/a,-99.99,Henriksen +1-Wire,2013-06-02 08:32:00,
2013-06-02 04:38:00,70.1,64.9,29.80,SSE,150,2.2,5.9,83,0.00,n/a,n/a,-99.99,Henriksen +1-Wire,2013-06-02 08:38:00,
2013-06-02 04:44:00,70.0,64.8,29.80,SE,124,1.9,4.8,83,0.00,n/a,n/a,-99.99,Henriksen +1-Wire,2013-06-02 08:44:00,
2013-06-02 04:50:00,69.9,64.9,29.81,SSE,150,2.5,4.8,83,0.00,n/a,n/a,-99.99,Henriksen +1-Wire,2013-06-02 08:50:00,
2013-06-02 04:56:00,69.9,64.9,29.81,SE,134,2.8,4.8,84,0.00,n/a,n/a,-99.99,Henriksen +1-Wire,2013-06-02 08:56:00,
2013-06-02 05:02:00,69.8,64.8,29.80,ESE,117,3.2,4.6,84,0.00,n/a,n/a,-99.99,Henriksen +1-Wire,2013-06-02 09:02:00,
2013-06-02 05:08:00,69.8,64.9,29.80,SE,132,3.5,5.4,84,0.00,n/a,n/a,-99.99,Henriksen +1-Wire,2013-06-02 09:08:00,
2013-06-02 05:14:00,69.7,64.9,29.80,SE,127,3.8,6.1,84,0.00,n/a,n/a,-99.99,Henriksen +1-Wire,2013-06-02 09:14:00,
2013-06-02 05:20:00,69.7,64.9,29.80,SSE,147,3.7,6.1,84,0.00,n/a,n/a,-99.99,Henriksen +1-Wire,2013-06-02 09:20:00,
2013-06-02 05:26:00,69.7,64.9,29.81,SSE,155,3.3,6.8,84,0.00,n/a,n/a,-99.99,Henriksen +1-Wire,2013-06-02 09:26:00,
2013-06-02 05:32:00,69.7,65.0,29.81,SE,124,3.5,6.7,84,0.00,n/a,n/a,-99.99,Henriksen +1-Wire,2013-06-02 09:32:00,
2013-06-02 05:38:00,69.6,65.0,29.81,SE,127,2.6,6.7,85,0.00,n/a,n/a,-99.99,Henriksen +1-Wire,2013-06-02 09:38:00,
2013-06-02 05:44:00,69.6,65.1,29.82,ESE,122,3.4,6.1,85,0.00,n/a,n/a,-99.99,Henriksen +1-Wire,2013-06-02 09:44:00,
2013-06-02 05:50:00,69.7,64.9,29.82,SSE,152,3.2,8.3,84,0.00,n/a,n/a,-99.99,Henriksen +1-Wire,2013-06-02 09:50:00,
2013-06-02 05:56:00,69.6,65.1,29.82,SSE,157,4.1,8.3,85,0.00,n/a,n/a,-99.99,Henriksen +1-Wire,2013-06-02 09:56:00,
2013-06-02 06:02:00,69.7,65.0,29.82,ESE,116,3.6,8.0,85,0.00,n/a,n/a,-99.99,Henriksen +1-Wire,2013-06-02 10:02:00,
2013-06-02 06:08:00,69.6,65.2,29.82,SE,126,3.2,8.0,85,0.00,n/a,n/a,-99.99,Henriksen +1-Wire,2013-06-02 10:08:00,
2013-06-02 06:14:00,69.7,65.3,29.81,SE,137,3.1,6.3,85,0.00,n/a,n/a,-99.99,Henriksen +1-Wire,2013-06-02 10:14:00,
2013-06-02 06:20:00,69.8,65.4,29.81,SE,130,3.3,7.3,85,0.00,n/a,n/a,-99.99,Henriksen +1-Wire,2013-06-02 10:20:00,
2013-06-02 06:26:00,70.0,65.4,29.81,SSE,155,4.0,8.2,85,0.00,n/a,n/a,-99.99,Henriksen +1-Wire,2013-06-02 10:26:00,
2013-06-02 06:32:00,70.2,65.5,29.81,SSE,147,3.5,8.2,84,0.00,n/a,n/a,-99.99,Henriksen +1-Wire,2013-06-02 10:32:00,
2013-06-02 06:38:00,70.4,65.7,29.81,SSE,154,4.4,7.4,84,0.00,n/a,n/a,-99.99,Henriksen +1-Wire,2013-06-02 10:38:00,
2013-06-02 06:44:00,70.7,65.9,29.81,SSE,152,3.5,7.4,84,0.00,n/a,n/a,-99.99,Henriksen +1-Wire,2013-06-02 10:44:00,
2013-06-02 06:50:00,70.9,65.9,29.81,SSE,160,4.1,7.1,84,0.00,n/a,n/a,-99.99,Henriksen +1-Wire,2013-06-02 10:50:00,
2013-06-02 06:56:00,71.1,66.0,29.82,SSE,150,4.5,8.2,83,0.00,n/a,n/a,-99.99,Henriksen +1-Wire,2013-06-02 10:56:00,
2013-06-02 07:02:00,71.1,66.0,29.82,SSW,193,4.7,8.9,83,0.00,n/a,n/a,-99.99,Henriksen +1-Wire,2013-06-02 11:02:00,
2013-06-02 07:08:00,71.4,66.1,29.82,SSE,164,5.8,8.9,83,0.00,n/a,n/a,-99.99,Henriksen +1-Wire,2013-06-02 11:08:00,
2013-06-02 07:14:00,71.7,66.4,29.81,SSE,153,4.4,9.5,82,0.00,n/a,n/a,-99.99,Henriksen +1-Wire,2013-06-02 11:14:00,
2013-06-02 07:20:00,72.0,66.4,29.81,SSE,160,4.1,6.5,82,0.00,n/a,n/a,-99.99,Henriksen +1-Wire,2013-06-02 11:20:00,
2013-06-02 07:26:00,72.4,66.6,29.81,SSE,152,4.4,7.1,81,0.00,n/a,n/a,-99.99,Henriksen +1-Wire,2013-06-02 11:26:00,
2013-06-02 07:32:00,72.6,66.5,29.81,SSE,154,4.7,7.1,81,0.00,n/a,n/a,-99.99,Henriksen +1-Wire,2013-06-02 11:32:00,
2013-06-02 07:38:00,72.8,66.6,29.81,SSE,159,4.6,7.3,80,0.00,n/a,n/a,-99.99,Henriksen +1-Wire,2013-06-02 11:38:00,
2013-06-02 07:44:00,73.1,66.9,29.80,SE,130,5.1,8.1,80,0.00,n/a,n/a,-99.99,Henriksen +1-Wire,2013-06-02 11:44:00,
2013-06-02 07:50:00,73.5,66.8,29.80,SE,130,5.0,10.0,79,0.00,n/a,n/a,-99.99,Henriksen +1-Wire,2013-06-02 11:50:00,
2013-06-02 07:55:00,73.9,67.1,29.80,SSE,159,4.5,8.3,79,0.00,n/a,n/a,-99.99,Henriksen +1-Wire,2013-06-02 11:55:00,
2013-06-02 08:01:00,74.1,67.2,29.80,SE,135,5.2,8.8,78,0.00,n/a,n/a,-99.99,Henriksen +1-Wire,2013-06-02 12:01:00,
2013-06-02 08:07:00,74.3,67.4,29.80,SSE,154,3.9,8.8,78,0.00,n/a,n/a,-99.99,Henriksen +1-Wire,2013-06-02 12:07:00,
2013-06-02 08:14:00,74.5,67.2,29.80,SSE,161,5.1,8.3,77,0.00,n/a,n/a,-99.99,Henriksen +1-Wire,2013-06-02 12:14:00,
2013-06-02 08:20:00,74.9,67.8,29.80,SSE,163,3.9,7.4,78,0.00,n/a,n/a,-99.99,Henriksen +1-Wire,2013-06-02 12:20:00,
2013-06-02 08:26:00,75.3,67.4,29.80,SSE,162,5.0,8.8,76,0.00,n/a,n/a,-99.99,Henriksen +1-Wire,2013-06-02 12:26:00,
2013-06-02 08:32:00,75.7,67.5,29.80,ESE,113,5.5,9.5,75,0.00,n/a,n/a,-99.99,Henriksen +1-Wire,2013-06-02 12:32:00,
2013-06-02 08:38:00,75.8,67.5,29.80,SSE,157,5.1,9.5,75,0.00,n/a,n/a,-99.99,Henriksen +1-Wire,2013-06-02 12:38:00,
2013-06-02 08:44:00,76.1,67.6,29.80,SSE,161,5.4,9.1,74,0.00,n/a,n/a,-99.99,Henriksen +1-Wire,2013-06-02 12:44:00,
2013-06-02 08:49:00,76.3,67.5,29.80,SSE,161,5.4,9.0,73,0.00,n/a,n/a,-99.99,Henriksen +1-Wire,2013-06-02 12:49:00,
2013-06-02 08:56:00,76.4,67.4,29.80,SSE,163,5.8,10.2,73,0.00,n/a,n/a,-99.99,Henriksen +1-Wire,2013-06-02 12:56:00,
2013-06-02 09:01:00,76.6,67.5,29.80,SSW,196,5.6,10.5,73,0.00,n/a,n/a,-99.99,Henriksen +1-Wire,2013-06-02 13:01:00,
2013-06-02 09:08:00,77.2,67.7,29.79,SSE,163,5.4,10.1,72,0.00,n/a,n/a,-99.99,Henriksen +1-Wire,2013-06-02 13:08:00,
2013-06-02 09:14:00,77.7,67.9,29.79,SSE,163,4.2,8.9,71,0.00,n/a,n/a,-99.99,Henriksen +1-Wire,2013-06-02 13:14:00,
2013-06-02 09:20:00,78.0,68.1,29.79,SSE,165,5.0,7.1,71,0.00,n/a,n/a,-99.99,Henriksen +1-Wire,2013-06-02 13:20:00,
2013-06-02 09:26:00,78.4,67.9,29.79,SSE,155,4.7,9.3,69,0.00,n/a,n/a,-99.99,Henriksen +1-Wire,2013-06-02 13:26:00,
2013-06-02 09:31:00,78.8,68.2,29.78,SSW,193,4.6,9.3,69,0.00,n/a,n/a,-99.99,Henriksen +1-Wire,2013-06-02 13:31:00,
2013-06-02 09:38:00,79.3,68.2,29.78,SSE,167,4.2,8.3,68,0.00,n/a,n/a,-99.99,Henriksen +1-Wire,2013-06-02 13:38:00,
2013-06-02 09:44:00,79.6,68.2,29.78,SSE,158,5.7,9.0,67,0.00,n/a,n/a,-99.99,Henriksen +1-Wire,2013-06-02 13:44:00,
2013-06-02 09:50:00,79.9,67.8,29.78,SSE,158,5.9,11.7,66,0.00,n/a,n/a,-99.99,Henriksen +1-Wire,2013-06-02 13:50:00,
2013-06-02 09:56:00,80.7,68.5,29.78,SSE,156,4.2,11.7,66,0.00,n/a,n/a,-99.99,Henriksen +1-Wire,2013-06-02 13:56:00,
2013-06-02 10:02:00,81.0,68.6,29.78,SSE,157,4.8,9.6,65,0.00,n/a,n/a,-99.99,Henriksen +1-Wire,2013-06-02 14:02:00,
2013-06-02 10:08:00,81.1,67.9,29.78,SSE,162,6.5,11.8,63,0.00,n/a,n/a,-99.99,Henriksen +1-Wire,2013-06-02 14:08:00,
2013-06-02 10:14:00,81.4,67.7,29.78,South,191,5.4,11.8,62,0.00,n/a,n/a,-99.99,Henriksen +1-Wire,2013-06-02 14:14:00,
2013-06-02 10:20:00,81.9,68.0,29.78,SSE,163,6.1,11.0,62,0.00,n/a,n/a,-99.99,Henriksen +1-Wire,2013-06-02 14:20:00,
2013-06-02 10:26:00,82.3,67.9,29.77,SSE,158,5.9,11.5,61,0.00,n/a,n/a,-99.99,Henriksen +1-Wire,2013-06-02 14:26:00,
2013-06-02 10:32:00,82.9,68.0,29.77,SSE,160,4.8,10.1,60,0.00,n/a,n/a,-99.99,Henriksen +1-Wire,2013-06-02 14:32:00,
2013-06-02 10:38:00,83.2,68.0,29.77,SSE,158,4.5,11.7,59,0.00,n/a,n/a,-99.99,Henriksen +1-Wire,2013-06-02 14:38:00,
2013-06-02 10:44:00,83.7,68.2,29.77,SSE,155,5.9,11.7,59,0.00,n/a,n/a,-99.99,Henriksen +1-Wire,2013-06-02 14:44:00,
2013-06-02 10:50:00,84.0,67.8,29.76,SSE,155,5.4,10.9,57,0.00,n/a,n/a,-99.99,Henriksen +1-Wire,2013-06-02 14:50:00,
2013-06-02 10:56:00,84.5,68.1,29.77,SSE,152,5.2,12.4,57,0.00,n/a,n/a,-99.99,Henriksen +1-Wire,2013-06-02 14:56:00,
2013-06-02 11:02:00,85.0,68.2,29.76,SSE,157,6.0,12.4,56,0.00,n/a,n/a,-99.99,Henriksen +1-Wire,2013-06-02 15:02:00,
2013-06-02 11:08:00,85.2,68.1,29.76,SSE,157,6.2,12.1,55,0.00,n/a,n/a,-99.99,Henriksen +1-Wire,2013-06-02 15:08:00,
2013-06-02 11:14:00,85.2,68.0,29.76,SSE,155,4.8,12.7,55,0.00,n/a,n/a,-99.99,Henriksen +1-Wire,2013-06-02 15:14:00,
2013-06-02 11:20:00,85.5,67.7,29.76,SSE,150,5.1,11.2,54,0.00,n/a,n/a,-99.99,Henriksen +1-Wire,2013-06-02 15:20:00,
2013-06-02 11:26:00,85.6,67.4,29.76,SSE,164,7.0,12.3,53,0.00,n/a,n/a,-99.99,Henriksen +1-Wire,2013-06-02 15:26:00,
2013-06-02 11:32:00,85.8,68.0,29.76,SSE,160,7.6,13.1,54,0.00,n/a,n/a,-99.99,Henriksen +1-Wire,2013-06-02 15:32:00,
2013-06-02 11:38:00,85.7,67.0,29.76,SSE,160,8.4,14.6,53,0.00,n/a,n/a,-99.99,Henriksen +1-Wire,2013-06-02 15:38:00,
2013-06-02 11:44:00,85.9,67.1,29.76,SSW,193,7.3,14.6,52,0.00,n/a,n/a,-99.99,Henriksen +1-Wire,2013-06-02 15:44:00,
2013-06-02 11:50:00,86.0,67.0,29.76,South,186,8.1,14.5,52,0.00,n/a,n/a,-99.99,Henriksen +1-Wire,2013-06-02 15:50:00,
2013-06-02 11:56:00,86.1,66.7,29.75,South,186,7.0,14.5,51,0.00,n/a,n/a,-99.99,Henriksen +1-Wire,2013-06-02 15:56:00,
2013-06-02 12:02:00,86.6,67.0,29.75,South,184,9.5,17.8,51,0.00,n/a,n/a,-99.99,Henriksen +1-Wire,2013-06-02 16:02:00,
2013-06-02 12:08:00,86.2,65.7,29.75,SSE,166,8.0,17.8,49,0.00,n/a,n/a,-99.99,Henriksen +1-Wire,2013-06-02 16:08:00,
2013-06-02 12:14:00,86.1,65.5,29.75,SSE,164,9.8,18.9,49,0.00,n/a,n/a,-99.99,Henriksen +1-Wire,2013-06-02 16:14:00,
2013-06-02 12:20:00,86.4,65.9,29.75,SSE,162,7.6,18.9,49,0.00,n/a,n/a,-99.99,Henriksen +1-Wire,2013-06-02 16:20:00,
2013-06-02 12:26:00,86.6,66.1,29.75,SSE,157,8.5,19.8,49,0.00,n/a,n/a,-99.99,Henriksen +1-Wire,2013-06-02 16:26:00,
2013-06-02 12:32:00,86.7,66.0,29.75,SSE,157,8.1,15.9,49,0.00,n/a,n/a,-99.99,Henriksen +1-Wire,2013-06-02 16:32:00,
2013-06-02 12:38:00,87.0,66.6,29.75,SSE,162,7.1,14.5,50,0.00,n/a,n/a,-99.99,Henriksen +1-Wire,2013-06-02 16:38:00,
2013-06-02 12:44:00,87.0,65.7,29.74,SSE,151,9.3,14.6,48,0.00,n/a,n/a,-99.99,Henriksen +1-Wire,2013-06-02 16:44:00,
2013-06-02 12:50:00,87.0,65.7,29.74,SSE,156,10.1,14.8,48,0.00,n/a,n/a,-99.99,Henriksen +1-Wire,2013-06-02 16:50:00,
2013-06-02 12:56:00,87.2,65.6,29.74,SSE,164,10.0,16.2,48,0.00,n/a,n/a,-99.99,Henriksen +1-Wire,2013-06-02 16:56:00,
2013-06-02 13:02:00,87.3,64.9,29.74,South,170,5.9,16.2,46,0.00,n/a,n/a,-99.99,Henriksen +1-Wire,2013-06-02 17:02:00,
2013-06-02 13:08:00,88.4,66.0,29.74,SSE,168,5.7,13.4,46,0.00,n/a,n/a,-99.99,Henriksen +1-Wire,2013-06-02 17:08:00,
2013-06-02 13:14:00,87.9,64.0,29.74,South,184,10.6,20.5,44,0.00,n/a,n/a,-99.99,Henriksen +1-Wire,2013-06-02 17:14:00,
2013-06-02 13:20:00,88.1,63.9,29.73,SSE,162,9.1,20.5,44,0.00,n/a,n/a,-99.99,Henriksen +1-Wire,2013-06-02 17:20:00,
2013-06-02 13:26:00,88.1,62.9,29.73,SSE,160,9.3,16.7,42,0.00,n/a,n/a,-99.99,Henriksen +1-Wire,2013-06-02 17:26:00,
2013-06-02 13:32:00,88.6,62.6,29.73,SSE,157,9.6,17.5,41,0.00,n/a,n/a,-99.99,Henriksen +1-Wire,2013-06-02 17:32:00,
2013-06-02 13:38:00,88.8,62.5,29.73,SSE,165,7.3,17.5,40,0.00,n/a,n/a,-99.99,Henriksen +1-Wire,2013-06-02 17:38:00,
2013-06-02 13:44:00,88.9,61.2,29.72,SE,144,11.6,20.3,38,0.00,n/a,n/a,-99.99,Henriksen +1-Wire,2013-06-02 17:44:00,
2013-06-02 13:50:00,89.0,60.7,29.72,SSE,158,9.2,20.3,38,0.00,n/a,n/a,-99.99,Henriksen +1-Wire,2013-06-02 17:50:00,
2013-06-02 13:56:00,89.1,61.1,29.71,SSE,159,8.2,17.5,38,0.00,n/a,n/a,-99.99,Henriksen +1-Wire,2013-06-02 17:56:00,
2013-06-02 14:02:00,89.4,61.9,29.71,SSE,167,9.8,19.9,39,0.00,n/a,n/a,-99.99,Henriksen +1-Wire,2013-06-02 18:02:00,
2013-06-02 14:08:00,89.3,61.8,29.71,SSE,164,8.6,19.9,39,0.00,n/a,n/a,-99.99,Henriksen +1-Wire,2013-06-02 18:08:00,
2013-06-02 14:14:00,89.5,61.4,29.71,SE,133,7.4,16.0,38,0.00,n/a,n/a,-99.99,Henriksen +1-Wire,2013-06-02 18:14:00,
2013-06-02 14:20:00,89.6,61.5,29.70,SSE,160,9.8,16.0,38,0.00,n/a,n/a,-99.99,Henriksen +1-Wire,2013-06-02 18:20:00,
2013-06-02 14:26:00,89.1,61.3,29.71,SSE,162,6.8,19.9,38,0.00,n/a,n/a,-99.99,Henriksen +1-Wire,2013-06-02 18:26:00,
2013-06-02 14:32:00,89.0,61.1,29.70,ESE,119,11.0,19.9,38,0.00,n/a,n/a,-99.99,Henriksen +1-Wire,2013-06-02 18:32:00,
2013-06-02 14:38:00,89.3,61.7,29.70,SSE,158,6.4,18.9,39,0.00,n/a,n/a,-99.99,Henriksen +1-Wire,2013-06-02 18:38:00,
2013-06-02 14:44:00,89.6,62.0,29.70,SSE,161,8.3,15.0,39,0.00,n/a,n/a,-99.99,Henriksen +1-Wire,2013-06-02 18:44:00,
2013-06-02 14:50:00,89.0,61.6,29.70,SSE,166,9.4,18.2,39,0.00,n/a,n/a,-99.99,Henriksen +1-Wire,2013-06-02 18:50:00,
2013-06-02 14:56:00,88.9,62.2,29.70,SSE,155,10.1,18.2,40,0.00,n/a,n/a,-99.99,Henriksen +1-Wire,2013-06-02 18:56:00,
2013-06-02 15:02:00,89.2,62.9,29.70,ESE,116,7.6,16.4,40,0.00,n/a,n/a,-99.99,Henriksen +1-Wire,2013-06-02 19:02:00,
2013-06-02 15:08:00,88.8,61.5,29.69,SSE,155,10.2,21.7,39,0.00,n/a,n/a,-99.99,Henriksen +1-Wire,2013-06-02 19:08:00,
2013-06-02 15:14:00,88.7,61.3,29.69,SSE,158,9.1,21.7,39,0.00,n/a,n/a,-99.99,Henriksen +1-Wire,2013-06-02 19:14:00,
2013-06-02 15:20:00,88.8,61.6,29.69,SSE,157,9.8,18.2,39,0.00,n/a,n/a,-99.99,Henriksen +1-Wire,2013-06-02 19:20:00,
2013-06-02 15:26:00,88.8,62.4,29.69,SSE,159,9.7,14.7,40,0.00,n/a,n/a,-99.99,Henriksen +1-Wire,2013-06-02 19:26:00,
2013-06-02 15:32:00,88.5,62.0,29.69,SSE,158,10.1,17.7,40,0.00,n/a,n/a,-99.99,Henriksen +1-Wire,2013-06-02 19:32:00,
2013-06-02 15:38:00,88.6,62.8,29.69,SSE,159,9.8,17.7,41,0.00,n/a,n/a,-99.99,Henriksen +1-Wire,2013-06-02 19:38:00,
2013-06-02 15:44:00,88.8,62.4,29.69,SSE,157,9.2,16.5,40,0.00,n/a,n/a,-99.99,Henriksen +1-Wire,2013-06-02 19:44:00,
2013-06-02 15:50:00,88.9,63.2,29.69,SSE,157,9.5,16.9,41,0.00,n/a,n/a,-99.99,Henriksen +1-Wire,2013-06-02 19:50:00,
2013-06-02 15:56:00,89.0,63.3,29.69,SSE,157,6.9,16.9,41,0.00,n/a,n/a,-99.99,Henriksen +1-Wire,2013-06-02 19:56:00,
2013-06-02 16:02:00,88.8,61.9,29.69,SSE,159,8.9,21.3,40,0.00,n/a,n/a,-99.99,Henriksen +1-Wire,2013-06-02 20:02:00,
2013-06-02 16:08:00,88.2,61.2,29.69,SSE,160,9.6,21.3,39,0.00,n/a,n/a,-99.99,Henriksen +1-Wire,2013-06-02 20:08:00,
2013-06-02 16:14:00,88.1,61.5,29.69,SSE,164,9.8,20.7,40,0.00,n/a,n/a,-99.99,Henriksen +1-Wire,2013-06-02 20:14:00,
2013-06-02 16:20:00,87.9,75.5,29.69,SSE,167,9.9,21.0,66,0.00,n/a,n/a,-99.99,Henriksen +1-Wire,2013-06-02 20:20:00,
2013-06-02 16:26:00,87.9,62.3,29.69,SSE,163,8.1,18.5,41,0.00,n/a,n/a,-99.99,Henriksen +1-Wire,2013-06-02 20:26:00,
2013-06-02 16:32:00,87.8,62.1,29.68,SSE,165,10.6,17.8,41,0.00,n/a,n/a,-99.99,Henriksen +1-Wire,2013-06-02 20:32:00,
2013-06-02 16:38:00,87.4,61.6,29.68,SSE,150,12.6,19.5,41,0.00,n/a,n/a,-99.99,Henriksen +1-Wire,2013-06-02 20:38:00,
2013-06-02 16:44:00,87.1,61.9,29.68,SSE,159,10.3,20.5,42,0.00,n/a,n/a,-99.99,Henriksen +1-Wire,2013-06-02 20:44:00,
2013-06-02 16:49:00,87.2,62.3,29.67,SSE,163,10.0,18.2,42,0.00,n/a,n/a,-99.99,Henriksen +1-Wire,2013-06-02 20:49:00,
2013-06-02 16:56:00,87.0,62.6,29.68,SSE,152,9.1,18.5,43,0.00,n/a,n/a,-99.99,Henriksen +1-Wire,2013-06-02 20:56:00,
2013-06-02 17:01:00,86.9,71.2,29.68,SSE,166,8.5,18.5,58,0.00,n/a,n/a,-99.99,Henriksen +1-Wire,2013-06-02 21:01:00,
2013-06-02 17:08:00,86.7,64.4,29.69,SSE,156,11.5,19.7,46,0.00,n/a,n/a,-99.99,Henriksen +1-Wire,2013-06-02 21:08:00,
2013-06-02 17:14:00,86.7,57.3,29.68,SSE,160,7.1,19.7,36,0.00,n/a,n/a,-99.99,Henriksen +1-Wire,2013-06-02 21:14:00,
2013-06-02 17:20:00,86.1,63.8,29.69,SSE,160,12.7,20.1,46,0.00,n/a,n/a,-99.99,Henriksen +1-Wire,2013-06-02 21:20:00,
2013-06-02 17:26:00,85.4,64.9,29.69,SSE,157,6.9,20.1,49,0.00,n/a,n/a,-99.99,Henriksen +1-Wire,2013-06-02 21:26:00,
2013-06-02 17:32:00,85.4,65.3,29.69,SSE,157,5.7,15.3,50,0.00,n/a,n/a,-99.99,Henriksen +1-Wire,2013-06-02 21:32:00,
2013-06-02 17:37:00,85.2,65.8,29.69,SSE,155,7.0,15.9,51,0.00,n/a,n/a,-99.99,Henriksen +1-Wire,2013-06-02 21:37:00,
2013-06-02 17:44:00,84.4,65.8,29.68,SSE,152,8.1,15.9,53,0.00,n/a,n/a,-99.99,Henriksen +1-Wire,2013-06-02 21:44:00,
2013-06-02 17:50:00,83.8,66.0,29.69,SSE,153,7.5,18.5,54,0.00,n/a,n/a,-99.99,Henriksen +1-Wire,2013-06-02 21:50:00,
2013-06-02 17:55:00,83.5,66.2,29.69,SSE,158,5.9,18.5,55,0.00,n/a,n/a,-99.99,Henriksen +1-Wire,2013-06-02 21:55:00,
2013-06-02 18:02:00,83.2,66.3,29.69,SSE,159,5.2,11.5,56,0.00,n/a,n/a,-99.99,Henriksen +1-Wire,2013-06-02 22:02:00,
2013-06-02 18:08:00,82.8,66.5,29.70,SSE,160,4.4,10.8,57,0.00,n/a,n/a,-99.99,Henriksen +1-Wire,2013-06-02 22:08:00,
2013-06-02 18:14:00,82.5,66.6,29.70,SSE,162,7.6,12.7,58,0.00,n/a,n/a,-99.99,Henriksen +1-Wire,2013-06-02 22:14:00,
2013-06-02 18:20:00,82.1,66.6,29.71,SSE,159,7.1,12.7,58,0.00,n/a,n/a,-99.99,Henriksen +1-Wire,2013-06-02 22:20:00,
2013-06-02 18:26:00,81.9,66.7,29.71,SSE,158,6.0,12.1,59,0.00,n/a,n/a,-99.99,Henriksen +1-Wire,2013-06-02 22:26:00,
2013-06-02 18:32:00,81.7,66.7,29.71,SSE,162,5.7,17.8,59,0.00,n/a,n/a,-99.99,Henriksen +1-Wire,2013-06-02 22:32:00,
2013-06-02 18:38:00,81.6,66.6,29.72,SSE,167,4.3,17.8,59,0.00,n/a,n/a,-99.99,Henriksen +1-Wire,2013-06-02 22:38:00,
2013-06-02 18:44:00,81.3,66.6,29.72,SSE,157,7.7,12.2,60,0.00,n/a,n/a,-99.99,Henriksen +1-Wire,2013-06-02 22:44:00,
2013-06-02 18:49:00,81.1,66.6,29.72,SSE,155,6.2,12.2,60,0.00,n/a,n/a,-99.99,Henriksen +1-Wire,2013-06-02 22:49:00,
2013-06-02 18:56:00,80.9,66.7,29.72,SSE,159,6.3,10.2,61,0.00,n/a,n/a,-99.99,Henriksen +1-Wire,2013-06-02 22:56:00,
2013-06-02 19:02:00,80.7,66.8,29.72,SSE,158,4.9,12.4,62,0.00,n/a,n/a,-99.99,Henriksen +1-Wire,2013-06-02 23:02:00,
2013-06-02 19:08:00,80.5,66.7,29.72,SSE,152,7.3,12.4,62,0.00,n/a,n/a,-99.99,Henriksen +1-Wire,2013-06-02 23:08:00,
2013-06-02 19:14:00,80.2,66.6,29.72,SSE,152,6.5,12.4,62,0.00,n/a,n/a,-99.99,Henriksen +1-Wire,2013-06-02 23:14:00,
2013-06-02 19:20:00,80.1,66.5,29.72,SSE,154,4.5,12.1,62,0.00,n/a,n/a,-99.99,Henriksen +1-Wire,2013-06-02 23:20:00,
2013-06-02 19:26:00,79.8,66.6,29.72,SSE,165,4.0,13.7,63,0.00,n/a,n/a,-99.99,Henriksen +1-Wire,2013-06-02 23:26:00,
2013-06-02 19:32:00,79.5,66.3,29.73,SE,133,6.3,14.2,63,0.00,n/a,n/a,-99.99,Henriksen +1-Wire,2013-06-02 23:32:00,
2013-06-02 19:38:00,79.3,66.3,29.73,SSE,154,4.3,14.2,64,0.00,n/a,n/a,-99.99,Henriksen +1-Wire,2013-06-02 23:38:00,
2013-06-02 19:44:00,78.9,66.4,29.74,SSE,163,7.2,13.7,65,0.00,n/a,n/a,-99.99,Henriksen +1-Wire,2013-06-02 23:44:00,
2013-06-02 19:50:00,78.7,66.4,29.74,SSE,163,4.5,13.7,65,0.00,n/a,n/a,-99.99,Henriksen +1-Wire,2013-06-02 23:50:00,
2013-06-02 19:56:00,78.3,66.4,29.75,South,184,4.5,8.4,66,0.00,n/a,n/a,-99.99,Henriksen +1-Wire,2013-06-02 23:56:00,
2013-06-02 20:02:00,78.0,66.2,29.74,SSE,164,7.7,13.2,66,0.00,n/a,n/a,-99.99,Henriksen +1-Wire,2013-06-03 00:02:00,
2013-06-02 20:08:00,77.6,66.4,29.74,SSE,161,5.9,13.2,68,0.00,n/a,n/a,-99.99,Henriksen +1-Wire,2013-06-03 00:08:00,
2013-06-02 20:14:00,76.9,66.8,29.74,SSE,157,3.7,10.8,70,0.00,n/a,n/a,-99.99,Henriksen +1-Wire,2013-06-03 00:14:00,
2013-06-02 20:20:00,75.9,67.3,29.74,SSE,149,2.7,8.7,74,0.01,n/a,n/a,-99.99,Henriksen +1-Wire,2013-06-03 00:20:00,
2013-06-02 20:26:00,74.9,67.6,29.74,SE,128,2.3,6.4,77,0.01,n/a,n/a,-99.99,Henriksen +1-Wire,2013-06-03 00:26:00,
2013-06-02 20:32:00,74.3,68.0,29.73,SE,126,1.8,4.8,80,0.01,n/a,n/a,-99.99,Henriksen +1-Wire,2013-06-03 00:32:00,
2013-06-02 20:38:00,73.8,68.1,29.75,SSW,193,1.6,3.7,81,0.01,n/a,n/a,-99.99,Henriksen +1-Wire,2013-06-03 00:38:00,
2013-06-02 20:44:00,73.8,68.1,29.75,SSE,160,1.2,3.7,82,0.01,n/a,n/a,-99.99,Henriksen +1-Wire,2013-06-03 00:44:00,
2013-06-02 20:50:00,73.7,68.2,29.75,SSE,160,0.4,2.3,82,0.01,n/a,n/a,-99.99,Henriksen +1-Wire,2013-06-03 00:50:00,
2013-06-02 20:56:00,73.3,68.8,29.75,East,86,0.1,2.3,85,0.01,n/a,n/a,-99.99,Henriksen +1-Wire,2013-06-03 00:56:00,
2013-06-02 21:02:00,72.9,68.7,29.75,ENE,75,0.0,1.6,86,0.01,n/a,n/a,-99.99,Henriksen +1-Wire,2013-06-03 01:02:00,
2013-06-02 21:08:00,72.7,68.8,29.75,East,100,0.1,1.3,87,0.01,n/a,n/a,-99.99,Henriksen +1-Wire,2013-06-03 01:08:00,
2013-06-02 21:14:00,72.9,68.2,29.75,SSE,151,3.1,5.0,85,0.01,n/a,n/a,-99.99,Henriksen +1-Wire,2013-06-03 01:14:00,
2013-06-02 21:20:00,73.2,68.1,29.75,SE,125,0.5,5.0,83,0.00,n/a,n/a,-99.99,Henriksen +1-Wire,2013-06-03 01:20:00,
2013-06-02 21:26:00,72.7,68.1,29.75,SE,142,0.0,1.9,85,0.00,n/a,n/a,-99.99,Henriksen +1-Wire,2013-06-03 01:26:00,
2013-06-02 21:32:00,72.4,68.2,29.76,ESE,117,0.0,0.0,86,0.00,n/a,n/a,-99.99,Henriksen +1-Wire,2013-06-03 01:32:00,
2013-06-02 21:38:00,72.7,67.6,29.76,SE,129,2.0,4.6,83,0.00,n/a,n/a,-99.99,Henriksen +1-Wire,2013-06-03 01:38:00,
2013-06-02 21:44:00,72.8,67.1,29.76,SE,128,2.0,4.6,81,0.00,n/a,n/a,-99.99,Henriksen +1-Wire,2013-06-03 01:44:00,
2013-06-02 21:50:00,72.9,66.7,29.76,SE,130,3.8,6.7,80,0.00,n/a,n/a,-99.99,Henriksen +1-Wire,2013-06-03 01:50:00,
2013-06-02 21:56:00,73.0,66.3,29.76,SE,125,3.5,8.1,79,0.00,n/a,n/a,-99.99,Henriksen +1-Wire,2013-06-03 01:56:00,
2013-06-02 22:02:00,72.9,66.1,29.76,SSE,152,2.9,8.1,78,0.00,n/a,n/a,-99.99,Henriksen +1-Wire,2013-06-03 02:02:00,
2013-06-02 22:08:00,72.8,66.0,29.76,SSE,152,4.1,6.0,78,0.00,n/a,n/a,-99.99,Henriksen +1-Wire,2013-06-03 02:08:00,
2013-06-02 22:14:00,72.7,65.7,29.76,SSE,155,3.1,6.0,78,0.00,n/a,n/a,-99.99,Henriksen +1-Wire,2013-06-03 02:14:00,
2013-06-02 22:20:00,72.6,65.6,29.76,SSE,154,3.7,6.2,78,0.00,n/a,n/a,-99.99,Henriksen +1-Wire,2013-06-03 02:20:00,
2013-06-02 22:26:00,72.3,65.5,29.76,SSE,163,3.2,6.2,78,0.00,n/a,n/a,-99.99,Henriksen +1-Wire,2013-06-03 02:26:00,
2013-06-02 22:32:00,72.2,65.4,29.76,SSE,159,3.0,5.0,78,0.00,n/a,n/a,-99.99,Henriksen +1-Wire,2013-06-03 02:32:00,
2013-06-02 22:38:00,72.1,65.3,29.76,SSE,156,2.1,6.4,78,0.00,n/a,n/a,-99.99,Henriksen +1-Wire,2013-06-03 02:38:00,
2013-06-02 22:44:00,71.9,65.3,29.76,SSE,159,2.4,4.5,79,0.00,n/a,n/a,-99.99,Henriksen +1-Wire,2013-06-03 02:44:00,
2013-06-02 22:50:00,71.8,65.3,29.76,SSW,194,1.7,4.5,79,0.00,n/a,n/a,-99.99,Henriksen +1-Wire,2013-06-03 02:50:00,
2013-06-02 22:56:00,71.5,65.4,29.76,ESE,121,1.9,3.5,80,0.00,n/a,n/a,-99.99,Henriksen +1-Wire,2013-06-03 02:56:00,
2013-06-02 23:02:00,71.2,65.1,29.76,SE,135,3.3,4.5,80,0.00,n/a,n/a,-99.99,Henriksen +1-Wire,2013-06-03 03:02:00,
2013-06-02 23:08:00,71.1,64.9,29.77,SE,126,2.2,4.5,80,0.00,n/a,n/a,-99.99,Henriksen +1-Wire,2013-06-03 03:08:00,
2013-06-02 23:14:00,71.1,64.6,29.76,SSE,147,2.8,5.9,79,0.00,n/a,n/a,-99.99,Henriksen +1-Wire,2013-06-03 03:14:00,
2013-06-02 23:20:00,71.1,64.4,29.76,SSE,147,2.5,5.9,79,0.00,n/a,n/a,-99.99,Henriksen +1-Wire,2013-06-03 03:20:00,
2013-06-02 23:26:00,70.9,64.4,29.76,SSE,150,2.4,6.1,79,0.00,n/a,n/a,-99.99,Henriksen +1-Wire,2013-06-03 03:26:00,
2013-06-02 23:32:00,70.9,64.3,29.76,SE,140,2.1,6.5,79,0.00,n/a,n/a,-99.99,Henriksen +1-Wire,2013-06-03 03:32:00,
2013-06-02 23:38:00,70.7,64.3,29.76,SSE,150,3.9,6.5,79,0.00,n/a,n/a,-99.99,Henriksen +1-Wire,2013-06-03 03:38:00,
2013-06-02 23:44:00,70.5,64.2,29.76,SE,137,3.0,6.2,80,0.00,n/a,n/a,-99.99,Henriksen +1-Wire,2013-06-03 03:44:00,
2013-06-02 23:50:00,70.3,64.1,29.76,SSE,150,3.6,6.2,80,0.00,n/a,n/a,-99.99,Henriksen +1-Wire,2013-06-03 03:50:00,
2013-06-02 23:56:00,70.3,64.0,29.76,SSE,150,2.8,5.3,80,0.00,n/a,n/a,-99.99,Henriksen +1-Wire,2013-06-03 03:56:00,